CW2798 Aduanas ES current weather conditions

sailwx.info

Wind from 226 at 5 knots gusting 8

Air temperature 27.8° C
Dewpoint 21.8° C

Last reported at 2017-Jul-27 07:45 UTC.
Time now 2017-Jul-27 08:57 UTC

Location: N 38°48' E 000°11'.
View on Google Maps.

See reports from other nearby stations

  
Tides and Currents Weather Stations Pressure Air Temp Water Temp Dewpoint Dewpoint Depression Visibility Wind Speed Wind Dir Waves Ship Positions
date/time (UTC)wind fromknots sea level pressurealtimeterstation pressurevisibilityair tempwater tempwave heightnotes
2017-Jul-27 07:45 226 5 gusting 8 27.8
2017-Jul-27 07:15 219 0 gusting 3 26.7
2017-Jul-27 07:00 26.1
2017-Jul-27 06:45 220 0 gusting 0 25.6
2017-Jul-27 06:15 25.0
2017-Jul-27 05:45 245 24.4
2017-Jul-27 05:00 246 0 gusting 2 23.9
2017-Jul-27 04:15 25.0
2017-Jul-27 02:45 25.6
2017-Jul-27 02:00 283 25.6
2017-Jul-27 01:15 242 1 gusting 2 25.6
2017-Jul-27 01:00 236 1 gusting 3 25.6
2017-Jul-27 00:45 221 2 gusting 3 25.6
2017-Jul-27 00:30 237 2 gusting 4 25.6
2017-Jul-27 00:15 242 2 gusting 3 26.1
2017-Jul-27 00:00 241 3 gusting 5 26.1
2017-Jul-26 23:45 240 3 gusting 6 26.1
2017-Jul-26 23:15 246 4 gusting 8 26.1
2017-Jul-26 23:00 245 4 gusting 6 26.1
2017-Jul-26 22:45 239 5 gusting 7 26.1
2017-Jul-26 22:31 238 6 gusting 9 26.1
2017-Jul-26 22:15 236 6 gusting 12 26.1
2017-Jul-26 21:45 215 5 gusting 7 26.1
2017-Jul-26 21:30 222 6 gusting 8 26.1
2017-Jul-26 21:15 214 7 gusting 11 26.1
2017-Jul-26 21:00 231 6 gusting 11 26.1
2017-Jul-26 19:30 204 6 gusting 10 26.7
2017-Jul-26 19:15 198 5 gusting 13 26.7
2017-Jul-26 19:00 204 6 gusting 8 26.7
2017-Jul-26 17:45 209 6 gusting 11 27.8
2017-Jul-26 17:15 201 6 gusting 10 28.3
2017-Jul-26 17:00 206 6 gusting 10 28.3
2017-Jul-26 16:45 207 7 gusting 10 28.3
2017-Jul-26 16:30 211 6 gusting 11 28.3
2017-Jul-26 16:15 192 6 gusting 11 28.3
2017-Jul-26 16:00 183 6 gusting 13 28.3
2017-Jul-26 15:45 181 6 gusting 10 28.3
2017-Jul-26 14:45 145 6 gusting 11 28.3
2017-Jul-26 14:30 126 5 gusting 11 27.8
2017-Jul-26 13:45 116 5 gusting 10 27.8
2017-Jul-26 13:30 115 3 gusting 12 28.3
2017-Jul-26 12:45 100 2 gusting 7 27.8
2017-Jul-26 12:30 088 4 gusting 7 27.8
2017-Jul-26 11:45 109 3 gusting 6 27.8
2017-Jul-26 11:30 092 4 gusting 6 27.2
2017-Jul-26 11:15 102 3 gusting 10 27.2
2017-Jul-26 10:45 061 5 gusting 6 26.7
2017-Jul-26 10:15 063 5 gusting 9 26.7
2017-Jul-26 09:30 062 5 gusting 8 26.7
2017-Jul-26 08:45 061 3 gusting 6 26.7
2017-Jul-26 08:30 052 2 gusting 6 26.7
2017-Jul-26 08:00 354 2 gusting 6 26.7
2017-Jul-26 07:30 349 4 gusting 7 26.1
2017-Jul-26 06:15 318 1 gusting 5 25.0
2017-Jul-26 06:00 295 0 gusting 3 24.4
2017-Jul-26 05:45 244 0 gusting 1 24.4
2017-Jul-26 04:15 243 2 gusting 4 23.9
2017-Jul-26 04:00 261 2 gusting 3 23.9
2017-Jul-26 03:45 243 2 gusting 4 23.9
2017-Jul-26 03:30 238 1 gusting 3 23.9
2017-Jul-26 02:15 233 1 gusting 3 23.9
2017-Jul-26 01:30 24.4
2017-Jul-26 00:30 242 1 gusting 2 25.0
2017-Jul-26 00:15 251 0 gusting 3 25.0
2017-Jul-25 23:15 243 2 gusting 4 25.6
2017-Jul-25 22:45 25.6
2017-Jul-25 22:00 26.1
2017-Jul-25 21:45 257 26.1
2017-Jul-25 21:30 255 0 gusting 0 26.1
2017-Jul-25 21:15 220 26.1
2017-Jul-25 21:00 204 0 gusting 2 26.1
2017-Jul-25 20:15 108 0 gusting 4 26.1
2017-Jul-25 20:00 079 0 gusting 3 26.1
2017-Jul-25 19:45 081 1 gusting 3 26.1
2017-Jul-25 19:00 071 3 gusting 6 26.1
2017-Jul-25 18:00 075 3 gusting 6 26.1
2017-Jul-25 17:45 064 4 gusting 8 26.1
2017-Jul-25 17:30 076 3 gusting 7 26.7
2017-Jul-25 17:15 073 4 gusting 7 26.1
2017-Jul-25 17:00 080 3 gusting 6 26.7
2017-Jul-25 16:45 083 3 gusting 9 26.7
2017-Jul-25 15:45 104 3 gusting 6 26.7
2017-Jul-25 15:15 084 4 gusting 6 26.7
2017-Jul-25 15:00 075 4 gusting 10 26.7
2017-Jul-25 14:45 087 3 gusting 7 27.2
2017-Jul-25 14:30 090 5 gusting 8 27.2
2017-Jul-25 14:15 083 3 gusting 9 27.2
2017-Jul-25 14:00 079 3 gusting 8 27.2
2017-Jul-25 13:30 084 3 gusting 8 26.7
2017-Jul-25 13:00 085 4 gusting 6 26.7
2017-Jul-25 12:30 080 4 gusting 6 26.1
2017-Jul-25 12:15 067 4 gusting 6 26.1
2017-Jul-25 11:15 063 6 gusting 10 25.6
2017-Jul-25 11:00 067 6 gusting 10 25.6
2017-Jul-25 10:45 066 6 gusting 11 25.6
2017-Jul-25 10:31 071 6 gusting 9 25.6
2017-Jul-25 10:15 067 6 gusting 11 25.6
2017-Jul-25 09:45 076 4 gusting 10 26.1
2017-Jul-25 09:00 037 4 gusting 10 26.1
2017-Jul-25 08:45 038 6 gusting 13 26.1
2017-Jul-25 08:30 047 3 gusting 9 26.1
2017-Jul-25 08:00 053 5 gusting 6 26.1